,,,PA_Meas_PMT16A,,PR_Meas_QMR101_102,,RH_Meas_QMH101,,SR_Meas_QMS101,,TA_Meas_QMH101,,GenWind,,GenWind,
date,time,status,PA,status,PR,status,RH,status,SR,status,TA,status,DirAvg,status,SpdAvg,
2012-03-15, 00:00:04,VALID,999.787,VALID,0,VALID,89.8693,VALID,0,VALID,25.3407,VALID,353,VALID,0,
2012-03-15, 00:01:04,VALID,999.802,VALID,0,VALID,89.8769,VALID,0,VALID,25.3407,VALID,353,VALID,0.003125,
2012-03-15, 00:02:04,VALID,999.804,VALID,0,VALID,89.8388,VALID,0,VALID,25.3407,VALID,353,VALID,0,
2012-03-15, 00:03:04,VALID,999.828,VALID,0,VALID,89.8159,VALID,0,VALID,25.3212,VALID,353,VALID,0,
2012-03-15, 00:04:04,VALID,999.779,VALID,0,VALID,89.8235,VALID,0,VALID,25.3212,VALID,353,VALID,0.0542969,
2012-03-15, 00:05:04,VALID,999.767,VALID,0,VALID,89.9151,VALID,0,VALID,25.3212,VALID,353,VALID,0.0800781,
2012-03-15, 00:06:04,VALID,999.817,VALID,0,VALID,89.999,VALID,0,VALID,25.3407,VALID,353,VALID,0.0722656,
2012-03-15, 00:07:04,VALID,999.799,VALID,0,VALID,89.999,VALID,0,VALID,25.3212,VALID,353,VALID,0,
2012-03-15, 00:08:04,VALID,999.817,VALID,0,VALID,89.9456,VALID,0,VALID,25.3212,VALID,353,VALID,0,
2012-03-15, 00:09:04,VALID,999.834,VALID,0,VALID,89.9609,VALID,0,VALID,25.3212,VALID,353,VALID,0,
2012-03-15, 00:10:04,VALID,999.835,VALID,0,VALID,90.0295,VALID,0,VALID,25.3212,VALID,353,VALID,0,
2012-03-15, 00:11:04,VALID,999.81,VALID,0,VALID,89.9914,VALID,0,VALID,25.3017,VALID,353,VALID,0.697266,
2012-03-15, 00:12:04,VALID,999.809,VALID,0,VALID,90.0219,VALID,0,VALID,25.3017,VALID,353,VALID,0.660156,
2012-03-15, 00:13:04,VALID,999.75,VALID,0,VALID,90.0982,VALID,0,VALID,25.3212,VALID,353,VALID,0.239844,
2012-03-15, 00:14:04,VALID,999.75,VALID,0,VALID,90.1516,VALID,0,VALID,25.3212,VALID,353,VALID,0.529297,
2012-03-15, 00:15:04,VALID,999.739,VALID,0,VALID,90.2431,VALID,0,VALID,25.2997,VALID,353,VALID,0.690625,
2012-03-15, 00:16:04,VALID,999.7,VALID,0,VALID,90.205,VALID,0,VALID,25.3212,VALID,208,VALID,0.989062,
2012-03-15, 00:17:04,VALID,999.684,VALID,0,VALID,90.266,VALID,0,VALID,25.3407,VALID,189,VALID,1.13789,
2012-03-15, 00:18:04,VALID,999.655,VALID,0,VALID,90.2584,VALID,0,VALID,25.3602,VALID,196,VALID,2.31992,
2012-03-15, 00:19:04,VALID,999.708,VALID,0,VALID,90.3805,VALID,0,VALID,25.3797,VALID,273,VALID,1.17617,
2012-03-15, 00:20:04,VALID,999.732,VALID,0,VALID,90.0371,VALID,0,VALID,25.3583,VALID,2,VALID,1.14102,
2012-03-15, 00:21:04,VALID,999.704,VALID,0,VALID,89.8769,VALID,0,VALID,25.3388,VALID,19,VALID,0.921094,
2012-03-15, 00:22:04,VALID,999.68,VALID,0,VALID,89.8617,VALID,0,VALID,25.2978,VALID,19,VALID,0.513672,
2012-03-15, 00:23:04,VALID,999.66,VALID,0,VALID,89.4878,VALID,0,VALID,25.3193,VALID,273,VALID,0.698828,
2012-03-15, 00:24:04,VALID,999.675,VALID,0,VALID,89.3352,VALID,0,VALID,25.2997,VALID,178,VALID,1.18125,
2012-03-15, 00:25:04,VALID,999.653,VALID,0,VALID,89.4954,VALID,0,VALID,25.2802,VALID,146,VALID,1.39102,
2012-03-15, 00:26:04,VALID,999.664,VALID,0,VALID,89.5489,VALID,0,VALID,25.2393,VALID,142,VALID,1.0043,
2012-03-15, 00:27:04,VALID,999.656,VALID,0,VALID,89.5489,VALID,0,VALID,25.2412,VALID,142,VALID,0.386719,
2012-03-15, 00:28:04,VALID,999.629,VALID,0,VALID,89.381,VALID,0,VALID,25.2217,VALID,142,VALID,0.509766,
2012-03-15, 00:29:04,VALID,999.623,VALID,0,VALID,89.5641,VALID,0,VALID,25.2217,VALID,200,VALID,0.79375,
2012-03-15, 00:30:04,VALID,999.652,VALID,0,VALID,89.7777,VALID,0,VALID,25.2021,VALID,264,VALID,0.78125,
2012-03-15, 00:31:04,VALID,999.633,VALID,0,VALID,89.8159,VALID,0,VALID,25.2021,VALID,264,VALID,0.586328,
2012-03-15, 00:32:04,VALID,999.612,VALID,0,VALID,89.7777,VALID,0,VALID,25.1631,VALID,264,VALID,0.642969,
2012-03-15, 00:33:04,VALID,999.597,VALID,0,VALID,89.7167,VALID,0.104696,VALID,25.1826,VALID,264,VALID,0.416406,
2012-03-15, 00:34:04,VALID,999.552,VALID,0,VALID,89.7014,VALID,0,VALID,25.1826,VALID,241,VALID,0.899609,
2012-03-15, 00:35:04,VALID,999.52,VALID,0,VALID,89.6251,VALID,0,VALID,25.165,VALID,241,VALID,0.817187,
2012-03-15, 00:36:04,VALID,999.53,VALID,0,VALID,89.5031,VALID,0,VALID,25.165,VALID,240,VALID,1.00547,
2012-03-15, 00:37:04,VALID,999.506,VALID,0,VALID,89.5412,VALID,0,VALID,25.165,VALID,240,VALID,0.754297,
2012-03-15, 00:38:04,VALID,999.51,VALID,0,VALID,89.4954,VALID,0,VALID,25.165,VALID,240,VALID,0.891797,
2012-03-15, 00:39:04,VALID,999.46,VALID,0,VALID,89.4497,VALID,0,VALID,25.1455,VALID,251,VALID,1.20938,
2012-03-15, 00:40:04,VALID,999.432,VALID,0,VALID,89.5336,VALID,0,VALID,25.165,VALID,253,VALID,1.01797,
2012-03-15, 00:41:04,VALID,999.433,VALID,0,VALID,89.6786,VALID,0,VALID,25.1455,VALID,251,VALID,1.05508,
2012-03-15, 00:42:04,VALID,999.456,VALID,0,VALID,89.7549,VALID,0,VALID,25.1455,VALID,232,VALID,1.11367,
2012-03-15, 00:43:04,VALID,999.445,VALID,0,VALID,89.732,VALID,0,VALID,25.1241,VALID,227,VALID,1.00898,
2012-03-15, 00:44:04,VALID,999.458,VALID,0,VALID,89.7777,VALID,0,VALID,25.126,VALID,217,VALID,1.16445,
2012-03-15, 00:45:04,VALID,999.463,VALID,0,VALID,89.8311,VALID,0,VALID,25.126,VALID,217,VALID,1.10898,
2012-03-15, 00:46:04,VALID,999.451,VALID,0,VALID,89.8083,VALID,0,VALID,25.1455,VALID,223,VALID,1.18477,
2012-03-15, 00:47:04,VALID,999.44,VALID,0,VALID,89.7854,VALID,0,VALID,25.165,VALID,244,VALID,1.01523,
2012-03-15, 00:48:04,VALID,999.449,VALID,0,VALID,89.7396,VALID,0,VALID,25.165,VALID,244,VALID,0.876953,
2012-03-15, 00:49:04,VALID,999.411,VALID,0,VALID,89.7549,VALID,0,VALID,25.1631,VALID,245,VALID,0.900781,
2012-03-15, 00:50:04,VALID,999.436,VALID,0,VALID,89.7014,VALID,0,VALID,25.1845,VALID,242,VALID,0.891406,
2012-03-15, 00:51:04,VALID,999.435,VALID,0,VALID,89.6175,VALID,0,VALID,25.1826,VALID,228,VALID,0.748828,
2012-03-15, 00:52:04,VALID,999.414,VALID,0,VALID,89.0377,VALID,0,VALID,25.204,VALID,246,VALID,1.05625,
2012-03-15, 00:53:04,VALID,999.381,VALID,0,VALID,88.7783,VALID,0,VALID,25.2431,VALID,246,VALID,1.04492,
2012-03-15, 00:54:04,VALID,999.379,VALID,0,VALID,88.7401,VALID,0,VALID,25.2217,VALID,308,VALID,0.840625,
2012-03-15, 00:55:04,VALID,999.367,VALID,0,VALID,89.6328,VALID,0,VALID,25.2412,VALID,43,VALID,1.26094,
2012-03-15, 00:56:04,VALID,999.373,VALID,0,VALID,89.9837,VALID,0,VALID,25.2626,VALID,43,VALID,1.04023,
2012-03-15, 00:57:04,VALID,999.382,VALID,0,VALID,90.2203,VALID,0,VALID,25.2217,VALID,43,VALID,0.827734,
2012-03-15, 00:58:04,VALID,999.41,VALID,0,VALID,90.3347,VALID,0,VALID,25.1826,VALID,87,VALID,1.26055,
2012-03-15, 00:59:04,VALID,999.408,VALID,0,VALID,90.205,VALID,0,VALID,25.1845,VALID,102,VALID,1.10742,
2012-03-15, 01:00:04,VALID,999.409,VALID,0,VALID,89.7091,VALID,0,VALID,25.1436,VALID,106,VALID,0.648828,
2012-03-15, 01:01:04,VALID,999.429,VALID,0,VALID,89.2589,VALID,0,VALID,25.1455,VALID,215,VALID,0.930859,
2012-03-15, 01:02:04,VALID,999.436,VALID,0,VALID,89.0987,VALID,0,VALID,25.1845,VALID,202,VALID,0.832812,
2012-03-15, 01:03:04,VALID,999.434,VALID,0,VALID,89.0453,VALID,0,VALID,25.1631,VALID,171,VALID,0.922266,
2012-03-15, 01:04:04,VALID,999.425,VALID,0,VALID,89.2818,VALID,0,VALID,25.204,VALID,150,VALID,1.43203,
2012-03-15, 01:05:04,VALID,999.391,VALID,0,VALID,89.526,VALID,0,VALID,25.2236,VALID,144,VALID,1.47461,
2012-03-15, 01:06:04,VALID,999.398,VALID,0,VALID,89.648,VALID,0,VALID,25.2236,VALID,145,VALID,0.979688,
2012-03-15, 01:07:04,VALID,999.408,VALID,0,VALID,89.6938,VALID,0,VALID,25.204,VALID,145,VALID,0.728516,
2012-03-15, 01:08:04,VALID,999.389,VALID,0,VALID,89.6023,VALID,0,VALID,25.204,VALID,154,VALID,0.3875,
2012-03-15, 01:09:04,VALID,999.377,VALID,0,VALID,89.7167,VALID,0,VALID,25.165,VALID,154,VALID,0.525,
2012-03-15, 01:10:04,VALID,999.38,VALID,0,VALID,89.8464,VALID,0,VALID,25.1631,VALID,154,VALID,0.366016,
2012-03-15, 01:11:04,VALID,999.352,VALID,0,VALID,89.8998,VALID,0,VALID,25.165,VALID,154,VALID,0.547656,
2012-03-15, 01:12:04,VALID,999.321,VALID,0,VALID,89.8006,VALID,0,VALID,25.165,VALID,190,VALID,0.930859,
2012-03-15, 01:13:04,VALID,999.328,VALID,0,VALID,89.7549,VALID,0,VALID,25.165,VALID,190,VALID,0.678516,
2012-03-15, 01:14:04,VALID,999.292,VALID,0,VALID,89.6251,VALID,0,VALID,25.165,VALID,213,VALID,0.850781,
2012-03-15, 01:15:04,VALID,999.287,VALID,0,VALID,89.5946,VALID,0,VALID,25.165,VALID,213,VALID,0.773438,
2012-03-15, 01:16:04,VALID,999.22,VALID,0,VALID,89.6175,VALID,0,VALID,25.1845,VALID,213,VALID,0.761328,
2012-03-15, 01:17:04,VALID,999.22,VALID,0,VALID,89.381,VALID,0,VALID,25.165,VALID,225,VALID,1.04258,
2012-03-15, 01:18:04,VALID,999.193,VALID,0,VALID,89.2437,VALID,0,VALID,25.1631,VALID,225,VALID,0.884375,
2012-03-15, 01:19:04,VALID,999.208,VALID,0,VALID,89.2284,VALID,0,VALID,25.1845,VALID,225,VALID,0.801172,
2012-03-15, 01:20:04,VALID,999.19,VALID,0,VALID,89.1521,VALID,0,VALID,25.165,VALID,225,VALID,0.601953,
2012-03-15, 01:21:04,VALID,999.173,VALID,0,VALID,89.2589,VALID,0,VALID,25.1436,VALID,225,VALID,0.676953,
2012-03-15, 01:22:04,VALID,999.189,VALID,0,VALID,89.4115,VALID,0,VALID,25.1455,VALID,225,VALID,0.418359,
2012-03-15, 01:23:04,VALID,999.165,VALID,0,VALID,89.4802,VALID,0,VALID,25.126,VALID,225,VALID,0.483984,
2012-03-15, 01:24:04,VALID,999.186,VALID,0,VALID,89.5565,VALID,0,VALID,25.1064,VALID,225,VALID,0.523828,
2012-03-15, 01:25:04,VALID,999.202,VALID,0,VALID,89.5794,VALID,0,VALID,25.0869,VALID,225,VALID,0.449219,
2012-03-15, 01:26:04,VALID,999.208,VALID,0,VALID,89.5565,VALID,0,VALID,25.0674,VALID,64,VALID,1.71797,
2012-03-15, 01:27:04,VALID,999.224,VALID,0,VALID,89.9837,VALID,0,VALID,25.0069,VALID,63,VALID,1.3207,
2012-03-15, 01:28:04,VALID,999.179,VALID,0,VALID,90.3271,VALID,0,VALID,24.9679,VALID,79,VALID,1.43281,
2012-03-15, 01:29:04,VALID,999.161,VALID,0,VALID,90.1821,VALID,0,VALID,24.9484,VALID,94,VALID,0.640625,
2012-03-15, 01:30:04,VALID,999.14,VALID,0,VALID,89.9227,VALID,0,VALID,24.9503,VALID,115,VALID,0.623828,
2012-03-15, 01:31:04,VALID,999.142,VALID,0,VALID,89.8235,VALID,0,VALID,24.9698,VALID,213,VALID,0.303516,
2012-03-15, 01:32:04,VALID,999.135,VALID,0,VALID,89.9456,VALID,0,VALID,24.9484,VALID,213,VALID,0.20625,
2012-03-15, 01:33:04,VALID,999.129,VALID,0,VALID,89.9685,VALID,0,VALID,24.9484,VALID,213,VALID,0.00585938,
2012-03-15, 01:34:04,VALID,999.135,VALID,0,VALID,90.0524,VALID,0,VALID,24.9698,VALID,213,VALID,0,
2012-03-15, 01:35:04,VALID,999.111,VALID,0,VALID,90.144,VALID,0,VALID,24.9484,VALID,213,VALID,0,
2012-03-15, 01:36:04,VALID,999.098,VALID,0,VALID,90.2431,VALID,0,VALID,24.9679,VALID,213,VALID,0,
2012-03-15, 01:37:04,VALID,999.093,VALID,0,VALID,90.1668,VALID,0,VALID,24.9679,VALID,213,VALID,0,
2012-03-15, 01:38:04,VALID,999.084,VALID,0,VALID,90.1897,VALID,0,VALID,24.9698,VALID,213,VALID,0,
2012-03-15, 01:39:04,VALID,999.036,VALID,0,VALID,90.3576,VALID,0,VALID,24.9484,VALID,114,VALID,1.11602,
2012-03-15, 01:40:04,VALID,999.028,VALID,0,VALID,90.3957,VALID,0,VALID,24.9503,VALID,114,VALID,0.304297,
2012-03-15, 01:41:04,VALID,999.02,VALID,0,VALID,90.35,VALID,0,VALID,24.9308,VALID,10,VALID,1.30078,
2012-03-15, 01:42:04,VALID,999.059,VALID,0,VALID,90.6094,VALID,0,VALID,24.9112,VALID,24,VALID,1.0668,
2012-03-15, 01:43:04,VALID,999.016,VALID,0,VALID,90.7085,VALID,0,VALID,24.8722,VALID,43,VALID,0.817187,
2012-03-15, 01:44:04,VALID,999.008,VALID,0,VALID,90.823,VALID,0,VALID,24.8508,VALID,95,VALID,1.41484,
2012-03-15, 01:45:04,VALID,998.989,VALID,0,VALID,90.9146,VALID,0,VALID,24.8527,VALID,119,VALID,1.49844,
2012-03-15, 01:46:04,VALID,998.973,VALID,0,VALID,90.9374,VALID,0,VALID,24.8332,VALID,121,VALID,1.54883,
2012-03-15, 01:47:04,VALID,998.983,VALID,0,VALID,90.8535,VALID,0,VALID,24.8332,VALID,132,VALID,1.44414,
2012-03-15, 01:48:04,VALID,998.991,VALID,0,VALID,90.9146,VALID,0,VALID,24.8527,VALID,107,VALID,1.60703,
2012-03-15, 01:49:04,VALID,999.008,VALID,0,VALID,90.968,VALID,0,VALID,24.8527,VALID,91,VALID,1.28789,
2012-03-15, 01:50:04,VALID,998.953,VALID,0,VALID,90.9756,VALID,0,VALID,24.8136,VALID,72,VALID,0.748047,
2012-03-15, 01:51:04,VALID,998.954,VALID,0,VALID,91.029,VALID,0,VALID,24.7746,VALID,60,VALID,0.394141,
2012-03-15, 01:52:04,VALID,998.909,VALID,0,VALID,91.235,VALID,0,VALID,24.7356,VALID,350,VALID,1.14102,
2012-03-15, 01:53:04,VALID,998.925,VALID,0,VALID,91.4334,VALID,0,VALID,24.6965,VALID,24,VALID,1.50391,
2012-03-15, 01:54:04,VALID,998.919,VALID,0,VALID,91.5402,VALID,0,VALID,24.677,VALID,34,VALID,1.55195,
2012-03-15, 01:55:04,VALID,998.929,VALID,0,VALID,91.8606,VALID,0,VALID,24.6184,VALID,46,VALID,1.55781,
2012-03-15, 01:56:04,VALID,998.967,VALID,0,VALID,91.9903,VALID,0,VALID,24.6184,VALID,50,VALID,1.49063,
2012-03-15, 01:57:04,VALID,998.956,VALID,0,VALID,92.1124,VALID,0,VALID,24.5971,VALID,50,VALID,1.37344,
2012-03-15, 01:58:04,VALID,998.964,VALID,0,VALID,92.2268,VALID,0,VALID,24.5989,VALID,68,VALID,1.10391,
2012-03-15, 01:59:04,VALID,998.912,VALID,0,VALID,92.2192,VALID,0,VALID,24.5794,VALID,80,VALID,0.916406,
2012-03-15, 02:00:04,VALID,998.913,VALID,0,VALID,92.1353,VALID,0,VALID,24.5794,VALID,93,VALID,1.17344,
2012-03-15, 02:01:04,VALID,998.899,VALID,0,VALID,92.0895,VALID,0,VALID,24.5599,VALID,93,VALID,1.05859,
2012-03-15, 02:02:04,VALID,998.89,VALID,0,VALID,92.0895,VALID,0,VALID,24.5599,VALID,93,VALID,0.589453,
2012-03-15, 02:03:04,VALID,998.878,VALID,0,VALID,92.0514,VALID,0,VALID,24.5794,VALID,93,VALID,0.200781,
2012-03-15, 02:04:04,VALID,998.907,VALID,0,VALID,91.9598,VALID,0,VALID,24.5599,VALID,93,VALID,0.4,
2012-03-15, 02:05:04,VALID,998.866,VALID,0,VALID,91.9674,VALID,0,VALID,24.5599,VALID,14,VALID,0.836328,
2012-03-15, 02:06:04,VALID,998.874,VALID,0,VALID,92.0895,VALID,0,VALID,24.5404,VALID,10,VALID,0.903906,
2012-03-15, 02:07:04,VALID,998.889,VALID,0,VALID,92.265,VALID,0,VALID,24.5404,VALID,4,VALID,0.824609,
2012-03-15, 02:08:04,VALID,998.902,VALID,0,VALID,92.41,VALID,0,VALID,24.5404,VALID,4,VALID,0.915625,
2012-03-15, 02:09:04,VALID,998.875,VALID,0,VALID,92.4023,VALID,0,VALID,24.5209,VALID,4,VALID,1.11289,
2012-03-15, 02:10:04,VALID,998.868,VALID,0,VALID,92.41,VALID,0,VALID,24.5227,VALID,4,VALID,0.403516,
2012-03-15, 02:11:04,VALID,998.819,VALID,0,VALID,92.3947,VALID,0,VALID,24.5013,VALID,4,VALID,0.173828,
2012-03-15, 02:12:04,VALID,998.839,VALID,0,VALID,92.3718,VALID,0,VALID,24.5013,VALID,4,VALID,0,
2012-03-15, 02:13:04,VALID,998.827,VALID,0,VALID,92.326,VALID,0,VALID,24.5013,VALID,4,VALID,0,
2012-03-15, 02:14:04,VALID,998.806,VALID,0,VALID,92.2879,VALID,0,VALID,24.4818,VALID,4,VALID,0,
2012-03-15, 02:15:04,VALID,998.813,VALID,0,VALID,92.3031,VALID,0,VALID,24.4623,VALID,4,VALID,0,
2012-03-15, 02:16:04,VALID,998.8,VALID,0,VALID,92.3337,VALID,0,VALID,24.4623,VALID,4,VALID,0.356641,
2012-03-15, 02:17:04,VALID,998.787,VALID,0,VALID,92.3794,VALID,0,VALID,24.4623,VALID,4,VALID,0,
2012-03-15, 02:18:04,VALID,998.783,VALID,0,VALID,92.3947,VALID,0,VALID,24.4623,VALID,4,VALID,0,
2012-03-15, 02:19:04,VALID,998.801,VALID,0,VALID,92.3184,VALID,0,VALID,24.4428,VALID,4,VALID,0.0363281,
2012-03-15, 02:20:04,VALID,998.762,VALID,0,VALID,92.4557,VALID,0,VALID,24.4428,VALID,316,VALID,0.767969,
2012-03-15, 02:21:04,VALID,998.744,VALID,0,VALID,92.4557,VALID,0,VALID,24.4251,VALID,316,VALID,0.197656,
2012-03-15, 02:22:04,VALID,998.777,VALID,0,VALID,92.3413,VALID,0,VALID,24.3842,VALID,316,VALID,0.269531,
2012-03-15, 02:23:04,VALID,998.81,VALID,0,VALID,92.3031,VALID,0,VALID,24.3647,VALID,316,VALID,0.426953,
2012-03-15, 02:24:04,VALID,998.816,VALID,0,VALID,92.3718,VALID,0,VALID,24.3238,VALID,316,VALID,0.23125,
2012-03-15, 02:25:04,VALID,998.795,VALID,0,VALID,92.4405,VALID,0,VALID,24.3043,VALID,316,VALID,0,
2012-03-15, 02:26:04,VALID,998.816,VALID,0,VALID,92.4786,VALID,0,VALID,24.3257,VALID,316,VALID,0.003125,
2012-03-15, 02:27:04,VALID,998.812,VALID,0,VALID,92.532,VALID,0,VALID,24.3062,VALID,316,VALID,0.180859,
2012-03-15, 02:28:04,VALID,998.813,VALID,0,VALID,92.5549,VALID,0,VALID,24.3062,VALID,316,VALID,0,
2012-03-15, 02:29:04,VALID,998.829,VALID,0,VALID,92.5397,VALID,0,VALID,24.3062,VALID,316,VALID,0,
2012-03-15, 02:30:04,VALID,998.835,VALID,0,VALID,92.5626,VALID,0,VALID,24.3062,VALID,316,VALID,0.581641,
2012-03-15, 02:31:04,VALID,998.835,VALID,0,VALID,92.5778,VALID,0,VALID,24.3062,VALID,111,VALID,1.0043,
2012-03-15, 02:32:04,VALID,998.828,VALID,0,VALID,92.4939,VALID,0,VALID,24.2866,VALID,122,VALID,0.339844,
2012-03-15, 02:33:04,VALID,998.821,VALID,0,VALID,92.471,VALID,0,VALID,24.2866,VALID,122,VALID,0.00976563,
2012-03-15, 02:34:04,VALID,998.798,VALID,0,VALID,92.4557,VALID,0,VALID,24.2476,VALID,122,VALID,0.0078125,
2012-03-15, 02:35:04,VALID,998.759,VALID,0,VALID,92.5168,VALID,0,VALID,24.2476,VALID,122,VALID,0.608594,
2012-03-15, 02:36:04,VALID,998.752,VALID,0,VALID,92.6694,VALID,0,VALID,24.2263,VALID,122,VALID,0.414063,
2012-03-15, 02:37:04,VALID,998.733,VALID,0,VALID,92.6999,VALID,0,VALID,24.2671,VALID,122,VALID,0.23125,
2012-03-15, 02:38:04,VALID,998.724,VALID,0,VALID,92.6541,VALID,0,VALID,24.2458,VALID,122,VALID,0,
2012-03-15, 02:39:04,VALID,998.689,VALID,0,VALID,92.6999,VALID,0,VALID,24.2476,VALID,122,VALID,0,
2012-03-15, 02:40:04,VALID,998.687,VALID,0,VALID,92.7075,VALID,0,VALID,24.2476,VALID,122,VALID,0,
2012-03-15, 02:41:04,VALID,998.694,VALID,0,VALID,92.7609,VALID,0,VALID,24.2263,VALID,122,VALID,0,
2012-03-15, 02:42:04,VALID,998.66,VALID,0,VALID,92.8296,VALID,0,VALID,24.2671,VALID,122,VALID,0,
2012-03-15, 02:43:04,VALID,998.67,VALID,0,VALID,92.883,VALID,0,VALID,24.2458,VALID,122,VALID,0,
2012-03-15, 02:44:04,VALID,998.703,VALID,0,VALID,92.883,VALID,0,VALID,24.2671,VALID,122,VALID,0,
2012-03-15, 02:45:04,VALID,998.721,VALID,0,VALID,92.9059,VALID,0,VALID,24.2866,VALID,122,VALID,0.450391,
2012-03-15, 02:46:04,VALID,998.693,VALID,0,VALID,92.8983,VALID,0,VALID,24.2866,VALID,122,VALID,0,
2012-03-15, 02:47:04,VALID,998.716,VALID,0,VALID,92.883,VALID,0,VALID,24.2458,VALID,122,VALID,0.388672,
2012-03-15, 02:48:04,VALID,998.703,VALID,0,VALID,92.9288,VALID,0,VALID,24.2671,VALID,122,VALID,0.471094,
2012-03-15, 02:49:04,VALID,998.697,VALID,0,VALID,92.9364,VALID,0,VALID,24.2866,VALID,122,VALID,0.392188,
2012-03-15, 02:50:04,VALID,998.705,VALID,0,VALID,92.9898,VALID,0,VALID,24.2866,VALID,122,VALID,0.359375,
2012-03-15, 02:51:04,VALID,998.66,VALID,0,VALID,93.0356,VALID,0,VALID,24.3062,VALID,122,VALID,0.532422,
2012-03-15, 02:52:04,VALID,998.664,VALID,0,VALID,93.0814,VALID,0,VALID,24.3257,VALID,122,VALID,0.801953,
2012-03-15, 02:53:04,VALID,998.688,VALID,0,VALID,93.1271,VALID,0,VALID,24.3452,VALID,132,VALID,0.9375,
2012-03-15, 02:54:04,VALID,998.68,VALID,0,VALID,93.2111,VALID,0,VALID,24.3842,VALID,149,VALID,1.00977,
2012-03-15, 02:55:04,VALID,998.69,VALID,0,VALID,93.2797,VALID,0,VALID,24.3824,VALID,149,VALID,1.28086,
2012-03-15, 02:56:04,VALID,998.728,VALID,0,VALID,93.2721,VALID,0,VALID,24.4428,VALID,130,VALID,0.860547,
2012-03-15, 02:57:04,VALID,998.738,VALID,0,VALID,93.2492,VALID,0,VALID,24.4428,VALID,130,VALID,0.655859,
2012-03-15, 02:58:04,VALID,998.726,VALID,0,VALID,93.1958,VALID,0,VALID,24.4428,VALID,130,VALID,0.305859,
2012-03-15, 02:59:04,VALID,998.688,VALID,0,VALID,93.2111,VALID,0,VALID,24.4623,VALID,130,VALID,0.238672,
2012-03-15, 03:00:04,VALID,998.725,VALID,0,VALID,93.2187,VALID,0,VALID,24.4818,VALID,130,VALID,0.45625,
2012-03-15, 03:01:04,VALID,998.739,VALID,0,VALID,93.2492,VALID,0,VALID,24.5013,VALID,130,VALID,0.116016,
2012-03-15, 03:02:04,VALID,998.714,VALID,0,VALID,93.2034,VALID,0,VALID,24.5013,VALID,130,VALID,0,
2012-03-15, 03:03:04,VALID,998.744,VALID,0,VALID,93.1882,VALID,0,VALID,24.5013,VALID,130,VALID,0.0503906,
2012-03-15, 03:04:04,VALID,998.714,VALID,0,VALID,93.1729,VALID,0,VALID,24.5209,VALID,130,VALID,0.0261719,
2012-03-15, 03:05:04,VALID,998.707,VALID,0,VALID,93.1348,VALID,0,VALID,24.5013,VALID,130,VALID,0.155078,
2012-03-15, 03:06:04,VALID,998.755,VALID,0,VALID,93.15,VALID,0,VALID,24.4818,VALID,130,VALID,0.408594,
2012-03-15, 03:07:04,VALID,998.798,VALID,0,VALID,93.1958,VALID,0,VALID,24.5013,VALID,121,VALID,0.989453,
2012-03-15, 03:08:04,VALID,998.814,VALID,0,VALID,93.1958,VALID,0,VALID,24.5209,VALID,95,VALID,1.36875,
2012-03-15, 03:09:04,VALID,998.811,VALID,0,VALID,93.2187,VALID,0,VALID,24.5013,VALID,95,VALID,0.886719,
2012-03-15, 03:10:04,VALID,998.758,VALID,0,VALID,93.234,VALID,0,VALID,24.5013,VALID,95,VALID,0.414453,
2012-03-15, 03:11:04,VALID,998.749,VALID,0,VALID,93.2263,VALID,0,VALID,24.5013,VALID,95,VALID,0.369141,
2012-03-15, 03:12:04,VALID,998.741,VALID,0,VALID,93.1958,VALID,0,VALID,24.5013,VALID,95,VALID,0.637891,
2012-03-15, 03:13:04,VALID,998.758,VALID,0,VALID,93.15,VALID,0,VALID,24.5013,VALID,95,VALID,0.173438,
2012-03-15, 03:14:04,VALID,998.752,VALID,0,VALID,93.0737,VALID,0,VALID,24.48,VALID,95,VALID,0.0910156,
2012-03-15, 03:15:04,VALID,998.735,VALID,0,VALID,93.0661,VALID,0,VALID,24.5013,VALID,95,VALID,0.314063,
2012-03-15, 03:16:04,VALID,998.717,VALID,0,VALID,93.0051,VALID,0,VALID,24.4818,VALID,95,VALID,0,
2012-03-15, 03:17:04,VALID,998.727,VALID,0,VALID,93.0203,VALID,0,VALID,24.4623,VALID,95,VALID,0,
2012-03-15, 03:18:04,VALID,998.717,VALID,0,VALID,93.0432,VALID,0,VALID,24.4428,VALID,95,VALID,0,
2012-03-15, 03:19:04,VALID,998.684,VALID,0,VALID,93.0585,VALID,0,VALID,24.4623,VALID,95,VALID,0,
2012-03-15, 03:20:04,VALID,998.694,VALID,0,VALID,93.0508,VALID,0,VALID,24.4428,VALID,95,VALID,0,
2012-03-15, 03:21:04,VALID,998.72,VALID,0,VALID,92.9822,VALID,0,VALID,24.4233,VALID,57,VALID,0.840234,
2012-03-15, 03:22:04,VALID,998.703,VALID,0,VALID,93.1424,VALID,0,VALID,24.4233,VALID,57,VALID,0.510547,
2012-03-15, 03:23:04,VALID,998.723,VALID,0,VALID,93.1729,VALID,0,VALID,24.4037,VALID,57,VALID,0.329688,
2012-03-15, 03:24:04,VALID,998.731,VALID,0,VALID,93.2034,VALID,0,VALID,24.4214,VALID,57,VALID,0.598437,
2012-03-15, 03:25:04,VALID,998.718,VALID,0,VALID,93.1958,VALID,0,VALID,24.4428,VALID,57,VALID,0.183594,
2012-03-15, 03:26:04,VALID,998.702,VALID,0,VALID,93.1424,VALID,0,VALID,24.4233,VALID,57,VALID,0,
2012-03-15, 03:27:04,VALID,998.726,VALID,0,VALID,93.0127,VALID,0,VALID,24.4037,VALID,57,VALID,0,
2012-03-15, 03:28:04,VALID,998.732,VALID,0,VALID,93.0508,VALID,0,VALID,24.3647,VALID,57,VALID,0,
2012-03-15, 03:29:04,VALID,998.685,VALID,0,VALID,93.0203,VALID,0,VALID,24.3452,VALID,57,VALID,0,
2012-03-15, 03:30:04,VALID,998.683,VALID,0,VALID,93.1348,VALID,0,VALID,24.3452,VALID,57,VALID,0,
2012-03-15, 03:31:04,VALID,998.728,VALID,0,VALID,93.2416,VALID,0,VALID,24.3647,VALID,57,VALID,0,
2012-03-15, 03:32:04,VALID,998.681,VALID,0,VALID,93.3103,VALID,0,VALID,24.3647,VALID,57,VALID,0,
2012-03-15, 03:33:04,VALID,998.677,VALID,0,VALID,93.3408,VALID,0,VALID,24.3452,VALID,57,VALID,0,
2012-03-15, 03:34:04,VALID,998.652,VALID,0,VALID,93.2797,VALID,0,VALID,24.3647,VALID,57,VALID,0,
2012-03-15, 03:35:04,VALID,998.651,VALID,0,VALID,93.2874,VALID,0,VALID,24.3647,VALID,88,VALID,0,
2012-03-15, 03:36:04,VALID,998.644,VALID,0,VALID,93.3408,VALID,0,VALID,24.3452,VALID,88,VALID,0,
2012-03-15, 03:37:04,VALID,998.651,VALID,0,VALID,93.3408,VALID,0,VALID,24.3433,VALID,88,VALID,0,
2012-03-15, 03:38:04,VALID,998.674,VALID,0,VALID,93.3408,VALID,0,VALID,24.3433,VALID,88,VALID,0,
2012-03-15, 03:39:04,VALID,998.681,VALID,0,VALID,93.2034,VALID,0,VALID,24.3257,VALID,72,VALID,0.498047,
2012-03-15, 03:40:04,VALID,998.707,VALID,0,VALID,93.1195,VALID,0,VALID,24.2866,VALID,72,VALID,0.329297,
2012-03-15, 03:41:04,VALID,998.733,VALID,0,VALID,93.1271,VALID,0,VALID,24.2653,VALID,72,VALID,0.388672,
2012-03-15, 03:42:04,VALID,998.732,VALID,0,VALID,93.1882,VALID,0,VALID,24.2653,VALID,72,VALID,0.465234,
2012-03-15, 03:43:04,VALID,998.721,VALID,0,VALID,93.2492,VALID,0,VALID,24.2671,VALID,72,VALID,0.344922,
2012-03-15, 03:44:04,VALID,998.733,VALID,0,VALID,93.2568,VALID,0,VALID,24.2458,VALID,72,VALID,0.0226563,
2012-03-15, 03:45:04,VALID,998.703,VALID,0,VALID,93.2492,VALID,0,VALID,24.2458,VALID,110,VALID,0.845703,
2012-03-15, 03:46:04,VALID,998.72,VALID,0,VALID,93.2187,VALID,0,VALID,24.2458,VALID,115,VALID,0.997656,
2012-03-15, 03:47:04,VALID,998.703,VALID,0,VALID,93.2187,VALID,0,VALID,24.2263,VALID,116,VALID,0.50625,
2012-03-15, 03:48:04,VALID,998.73,VALID,0,VALID,93.2034,VALID,0,VALID,24.2067,VALID,131,VALID,0.810547,
2012-03-15, 03:49:04,VALID,998.762,VALID,0,VALID,93.2187,VALID,0,VALID,24.2281,VALID,146,VALID,1.0125,